CW7491 Weather Reports


time (UTC)temp
C
wind
direction
speed
KPH
gust
KPH
rain 1hr
cm
rain 24hr
cm
rain mn
cm
humidity
%
barometer
mb
20260510190503 19 264 3.2 9.7 0.00 1.09 0.00 65 1011.2
20260510185501 19 333 1.6 11.3 0.00 1.09 0.00 68 1011.1
20260510185003 19 163 3.2 11.3 0.00 1.09 0.00 68 1011.3
20260510184502 19 302 4.8 11.3 0.00 1.09 0.00 67 1011.3
20260510184002 20 230 3.2 11.3 0.00 1.09 0.00 68 1011.4
20260510183502 20 337 4.8 12.9 0.00 1.09 0.00 66 1011.3
20260510182002 19 142 3.2 8.0 0.00 1.09 0.00 67 1011.4
20260510181502 19 127 4.8 8.0 0.00 1.09 0.00 67 1011.4
20260510181002 20 190 3.2 9.7 0.00 1.09 0.00 68 1011.4
20260510180503 20 235 4.8 9.7 0.00 1.09 0.00 66 1011.3
20260510180004 19 154 247.8 1054.1 9.75 0.00 0.00 66
20260510175502 18 198 1.6 9.7 0.00 1.09 0.00 67 1011.5
20260510174502 18 299 3.2 8.0 0.00 1.09 0.00 71 1011.4
20260510174002 19 354 1.6 9.7 0.00 1.09 0.00 64 1011.3
20260510173502 20 253 4.8 9.7 0.00 1.09 0.00 61 1011.4
20260510173003 20 232 1.6 9.7 0.00 1.09 0.00 72 1011.4
20260510172503 20 240 4.8 9.7 0.00 1.09 0.00 66 1011.5
20260510172004 19 198 1.6 6.4 0.00 1.09 0.00 71 1011.5
20260510171503 18 158 3.2 6.4 0.00 1.09 0.00 70 1011.5
20260510171003 18 359 3.2 6.4 0.00 1.09 0.00 73 1011.6
20260510170004 18 254 3.2 11.3 0.00 1.09 0.00 67 1011.5
20260510165001 18 55 1.6 12.9 0.00 1.09 0.00 66 1011.8
20260510164500 18 266 1.6 12.9 0.00 1.09 0.00 72 1011.9
20260510163501 18 283 4.8 9.7 0.00 1.09 0.00 70 1012.0
20260510163001 18 253 3.2 6.4 0.00 1.09 0.00 75 1012.1
20260510162501 18 203 1.6 8.0 0.00 1.09 0.00 78 1012.1
20260510162001 18 144 1.6 9.7 0.00 1.09 0.00 69 1012.1
20260510161500 18 172 4.8 9.7 0.00 1.09 0.00 67 1012.1
20260510160501 17 240 3.2 9.7 0.00 1.09 0.00 73 1012.1
20260510160001 17 324 1.6 6.4 0.00 1.09 0.00 72 1012.1
20260510155504 17 319 1.6 6.4 0.00 1.09 0.00 75 1012.1
20260510155001 16 257 1.6 8.0 0.00 1.09 0.00 78 1012.3
20260510154002 16 159 3.2 8.0 0.00 1.09 0.00 71 1012.4
20260510153501 17 240 3.2 8.0 0.00 1.09 0.00 74 1012.4
20260510152500 16 217 1.6 9.7 0.00 1.09 0.00 75 1012.6
20260510152001 16 95 3.2 9.7 0.00 1.09 0.00 83 1012.5
20260510151501 16 284 4.8 8.0 0.00 1.09 0.00 76 1012.6
20260510151001 16 335 3.2 8.0 0.00 1.09 0.00 72 1012.6
20260510150501 17 212 4.8 6.4 0.00 1.09 0.00 77 1012.5
20260510145500 13 120 0.0 4.8 0.00 1.09 0.00 93 1012.6
20260510145001 13 120 0.0 4.8 0.00 1.09 0.00 93 1012.6
20260510144501 13 120 0.0 4.8 0.00 1.09 0.00 93 1012.6
20260510144001 13 120 0.0 4.8 0.00 1.09 0.00 93 1012.6
20260510143001 13 120 0.0 4.8 0.00 1.09 0.00 93 1012.6
20260510141501 13 120 0.0 4.8 0.00 1.09 0.00 93 1012.6
20260510141001 13 120 0.0 4.8 0.00 1.09 0.00 93 1012.6
20260510140459 13 120 0.0 4.8 0.00 1.09 0.00 93 1012.6
20260510140003 13 120 0.0 4.8 0.00 1.09 0.00 93 1012.6
20260510135504 13 120 0.0 4.8 0.00 1.09 0.00 93 1012.6
20260510135002 12 196 1.6 4.8 0.00 1.09 0.00 90 1012.6
20260510134502 12 189 1.6 4.8 0.00 1.09 0.00 92 1012.5
20260510134003 12 229 0.0 4.8 0.00 1.09 0.00 93 1012.4
20260510133003 12 158 0.0 1.6 0.00 1.09 0.00 95 1012.4
20260510132502 11 60 0.0 1.6 0.00 1.09 0.00 95 1012.5
20260510132003 11 60 0.0 3.2 0.00 1.09 0.00 93 1012.5
20260510131502 11 315 0.0 4.8 0.00 1.09 0.00 93 1012.5
20260510131002 11 236 1.6 4.8 0.00 1.09 0.00 93 1012.5
20260510130503 11 315 0.0 4.8 0.00 1.09 0.00 95 1012.4
20260510130003 11 174 1.6 4.8 0.00 1.09 0.00 95 1012.4
20260510125001 11 162 0.0 3.2 0.00 1.12 0.00 94 1012.2
20260510124501 11 139 0.0 3.2 0.00 1.12 0.00 95 1012.2
20260510124002 11 193 1.6 3.2 0.00 1.12 0.00 96 1012.1
20260510123502 11 290 0.0 3.2 0.00 1.12 0.00 94 1012.0
20260510123001 11 264 0.0 4.8 0.00 1.12 0.00 93 1012.0
20260510122001 11 156 0.0 3.2 0.00 1.12 0.00 95 1012.0
20260510121501 11 115 0.0 3.2 0.00 1.12 0.00 97 1012.1
20260510121001 11 123 1.6 3.2 0.00 1.12 0.00 96 1012.0
20260510115501 10 136 1.6 4.8 0.00 1.12 0.00 97 1012.0
20260510115001 10 155 0.0 3.2 0.00 1.12 0.00 97 1012.0
20260510114501 10 156 1.6 3.2 0.00 1.12 0.00 98 1011.8
20260510113501 10 63 0.0 0.0 0.00 1.12 0.00 99 1011.9
20260510113000 10 94 0.0 1.6 0.00 1.12 0.00 99 1011.7
20260510112500 10 94 0.0 1.6 0.00 1.12 0.00 99 1011.7
20260510112002 10 94 0.0 0.0 0.00 1.12 0.00 99 1011.7
20260510111502 10 94 0.0 0.0 0.00 1.12 0.00 100 1011.7
20260510111001 10 94 0.0 0.0 0.00 1.12 0.00 100 1011.5
20260510110502 10 94 0.0 0.0 0.00 1.12 0.00 99 1011.5
20260510110002 10 71 0.0 0.0 0.00 1.12 0.00 99 1011.6
20260510104501 10 342 0.0 3.2 0.00 1.14 0.00 99 1011.5
20260510104001 10 342 1.6 3.2 0.00 1.14 0.00 99 1011.5
20260510103501 10 332 0.0 0.0 0.00 1.14 0.00 99 1011.4
20260510103003 10 332 0.0 0.0 0.00 1.14 0.00 99 1011.3
20260510102501 10 332 0.0 6.4 0.00 1.14 0.00 99 1011.3
20260510102002 10 332 0.0 8.0 0.00 1.14 0.00 99 1011.4
20260510101501 10 310 1.6 8.0 0.00 1.14 0.00 99 1011.4
20260510101002 10 307 1.6 8.0 0.00 1.14 0.00 99 1011.1
20260510100502 10 319 0.0 8.0 0.00 1.14 0.00 100 1011.0
20260510100003 10 359 1.6 6.4 0.00 1.14 0.00 100 1010.9
20260510095501 10 159 1.6 6.4 0.00 1.17 0.00 100 1010.7
20260510095001 10 165 1.6 6.4 0.00 1.17 0.00 100 1011.1
20260510094502 10 268 1.6 6.4 0.00 1.17 0.00 100 1011.4
20260510094002 10 309 1.6 6.4 0.00 1.17 0.00 100 1011.2
20260510093500 10 176 0.0 3.2 0.00 1.17 0.00 100 1011.0
20260510093002 10 173 1.6 3.2 0.00 1.17 0.00 100 1011.2
20260510092002 10 146 0.0 1.6 0.00 1.17 0.00 100 1011.2
20260510091502 10 151 0.0 1.6 0.00 1.17 0.00 100 1011.0
20260510091002 10 108 0.0 1.6 0.00 1.17 0.00 100 1011.1
20260510090003 10 180 0.0 1.6 0.00 1.17 0.00 100 1011.1
20260510085001 10 297 0.0 0.0 0.00 1.24 0.00 100 1011.4
20260510084502 10 315 0.0 0.0 0.00 1.24 0.00 100 1011.5
20260510082003 10 315 0.0 0.0 0.00 1.24 0.00 100 1011.2
20260510081503 10 315 0.0 0.0 0.00 1.24 0.00 100 1011.1
20260510081001 10 310 0.0 3.2 0.00 1.24 0.00 100 1011.2
20260510080502 10 310 0.0 3.2 0.00 1.24 0.00 100 1011.2
20260510080002 10 350 0.0 3.2 0.00 1.24 0.00 100 1011.2
20260510075502 10 262 0.0 1.6 0.00 1.24 0.00 100 1011.1
20260510075001 10 319 0.0 0.0 0.00 1.24 0.00 100 1011.2
20260510074502 10 319 0.0 0.0 0.00 1.24 0.00 100 1011.1
20260510074001 10 319 0.0 0.0 0.00 1.24 0.00 100 1011.0
20260510073502 10 319 0.0 0.0 0.00 1.24 0.00 100 1010.9
20260510073002 10 319 0.0 0.0 0.00 1.24 0.00 100 1010.9
20260510072502 10 319 0.0 0.0 0.00 1.24 0.00 100 1010.9
20260510071503 10 319 0.0 0.0 0.00 1.24 0.00 100 1011.0
20260510071000 10 319 0.0 0.0 0.00 1.24 0.00 100 1010.9
20260510070501 10 319 0.0 0.0 0.00 1.24 0.00 100 1010.9
20260510070003 10 319 0.0 0.0 0.00 1.24 0.00 100 1010.9
20260510064503 10 319 0.0 0.0 0.00 1.24 0.00 100 1010.9
20260510064001 10 319 0.0 0.0 0.00 1.24 0.00 100 1011.0
20260510063501 10 319 0.0 0.0 0.00 1.24 0.00 100 1011.0
20260510063002 10 319 0.0 0.0 0.00 1.24 0.00 100 1010.9
20260510062501 10 319 0.0 0.0 0.00 1.24 0.00 100 1010.6
20260510062001 10 319 0.0 1.6 0.00 1.24 0.00 100 1010.6
20260510061501 10 319 0.0 1.6 0.00 1.24 0.00 100 1010.4
20260510061001 10 321 0.0 1.6 0.00 1.24 0.00 100 1010.4
20260510060502 10 321 0.0 1.6 0.00 1.24 0.00 100 1010.5
20260510060001 10 290 0.0 0.0 0.00 1.24 0.00 100 1010.6
20260510055500 10 290 0.0 0.0 0.00 1.24 0.00 100 1010.5
20260510055000 10 290 0.0 1.6 0.00 1.24 0.00 100 1010.5
20260510054500 10 290 0.0 1.6 0.00 1.24 0.00 100 1010.6
20260510054002 10 266 0.0 0.0 0.00 1.24 0.00 100 1010.7
20260510053501 10 302 0.0 0.0 0.00 1.24 0.00 100 1010.7
20260510053000 10 302 0.0 0.0 0.00 1.24 0.00 100 1010.6
20260510052500 10 302 0.0 0.0 0.00 1.24 0.00 100 1010.5
20260510051000 10 302 0.0 0.0 0.00 1.24 0.00 100 1010.9
20260510050500 10 302 0.0 0.0 0.00 1.24 0.00 100 1010.9
20260510050000 10 302 0.0 0.0 0.00 1.24 0.00 100 1010.7
20260510045000 10 302 0.0 0.0 0.00 1.24 0.00 100 1010.8
20260510044500 10 302 0.0 0.0 0.00 1.24 0.00 100 1010.9
20260510044000 10 302 0.0 0.0 0.00 1.24 0.00 99 1010.7
20260510043500 10 302 0.0 0.0 0.00 1.24 0.00 99 1010.8
20260510042959 10 302 0.0 0.0 0.00 1.24 0.00 99 1010.9
20260510042501 10 302 0.0 0.0 0.00 1.24 0.00 99 1010.8
20260510041501 10 302 0.0 1.6 0.00 1.24 0.00 99 1010.7
20260510041000 10 292 0.0 1.6 0.00 1.24 0.00 100 1010.7
20260510040501 10 281 0.0 1.6 0.00 1.24 0.00 100 1010.8
20260510040006 10 311 0.0 1.6 0.00 1.24 1.24 100 1010.8
20260510035501 10 105 0.0 1.6 0.00 1.24 1.24 100 1010.8
20260510035002 11 60 0.0 1.6 0.00 1.24 1.24 100 1010.9
20260510034503 11 291 0.0 3.2 0.00 1.24 1.24 100 1010.7
20260510034003 11 279 0.0 8.0 0.00 1.24 1.24 100 1010.8
20260510033502 11 274 3.2 8.0 0.00 1.24 1.24 100 1010.6
20260510033003 11 259 0.0 3.2 0.00 1.24 1.24 100 1010.7
20260510032502 11 255 1.6 4.8 0.00 1.24 1.24 99 1010.7
20260510031503 11 265 3.2 4.8 0.00 1.24 1.24 99 1010.9
20260510030502 11 261 0.0 4.8 0.00 1.24 1.24 99 1011.0
20260510030002 11 297 3.2 6.4 0.00 1.24 1.24 99 1010.8
20260510025504 11 303 3.2 6.4 0.00 1.24 1.24 99 1010.7
20260510025002 11 261 0.0 6.4 0.00 1.24 1.24 99 1010.6
20260510024502 11 74 0.0 4.8 0.00 1.24 1.24 100 1010.6
20260510024003 11 290 1.6 4.8 0.00 1.24 1.24 100 1010.5
20260510023002 11 292 0.0 1.6 0.00 1.24 1.24 100 1010.6
20260510022502 11 37 0.0 0.0 0.00 1.24 1.24 99 1010.7
20260510021502 11 37 0.0 3.2 0.00 1.24 1.24 99 1010.8
20260510020004 11 280 0.0 0.0 0.00 1.24 1.24 100 1011.0
20260510015503 11 276 0.0 0.0 0.00 1.24 1.24 100 1011.0
20260510015003 11 263 0.0 0.0 0.00 1.24 1.24 100 1011.0
20260510014504 11 276 247.8 1054.1 9.75 0.00 1.24 100
20260510013502 11 276 0.0 0.0 0.00 1.24 1.24 100 1011.1
20260510013003 11 202 0.0 0.0 0.00 1.24 1.24 100 1011.1
20260510012503 11 202 0.0 0.0 0.00 1.24 1.24 100 1011.0
20260510012002 11 213 0.0 0.0 0.00 1.24 1.24 100 1011.0
20260510011501 11 146 0.0 0.0 0.00 1.24 1.24 100 1010.8
20260510011002 11 146 0.0 3.2 0.00 1.24 1.24 100 1010.7
20260510010502 11 146 0.0 3.2 0.00 1.24 1.24 100 1010.7
20260510005504 11 353 0.0 0.0 0.00 1.24 1.24 100 1010.7
20260510005004 11 343 0.0 0.0 0.03 1.24 1.24 100 1010.6
20260510004503 11 343 0.0 0.0 0.03 1.24 1.24 100 1010.6
20260510004003 11 343 0.0 3.2 0.03 1.24 1.24 100 1010.5
20260510003505 11 343 0.0 3.2 0.03 1.24 1.24 100 1010.5
20260510003004 11 129 0.0 1.6 0.03 1.24 1.24 100 1010.2
20260510002505 11 286 0.0 1.6 0.03 1.24 1.24 100 1010.3
20260510001503 10 268 0.0 1.6 0.03 1.24 1.24 100 1010.1
20260510001003 10 289 0.0 1.6 0.03 1.24 1.24 100 1010.1
20260510000503 10 289 0.0 1.6 0.03 1.24 1.24 100 1010.0
20260509235001 10 252 0.0 1.6 0.00 1.22 1.22 100 1010.0
20260509234504 10 259 0.0 3.2 0.00 1.22 1.22 100 1010.0
20260509234004 10 115 0.0 3.2 0.00 1.22 1.22 100 1010.0
20260509233503 10 111 1.6 3.2 0.00 1.22 1.22 100 1010.1
20260509233001 10 166 0.0 3.2 0.00 1.22 1.22 100 1010.4
20260509232503 10 115 0.0 1.6 0.03 1.22 1.22 100 1010.5
20260509232002 10 245 0.0 0.0 0.05 1.22 1.22 100 1010.6
20260509231002 10 318 0.0 1.6 0.05 1.22 1.22 100 1010.5
20260509230504 10 297 0.0 0.0 0.08 1.22 1.22 100 1010.5
20260509230004 10 295 0.0 1.6 0.08 1.22 1.22 100 1010.6
20260509225503 10 295 0.0 1.6 0.08 1.22 1.22 100 1010.7
20260509224504 10 102 0.0 1.6 0.10 1.22 1.22 100 1010.6
20260509224003 10 173 0.0 1.6 0.10 1.22 1.22 100 1010.7
20260509223502 10 309 0.0 1.6 0.10 1.22 1.22 100 1010.6
20260509222502 10 86 0.0 3.2 0.08 1.19 1.19 100 1010.6
20260509222002 10 94 1.6 3.2 0.05 1.17 1.17 100 1010.7
20260509220503 10 123 0.0 0.0 0.05 1.14 1.14 100 1011.0
20260509215503 10 103 0.0 0.0 0.08 1.14 1.14 100 1011.1
20260509215002 10 103 0.0 0.0 0.08 1.14 1.14 100 1011.0
20260509214502 10 103 0.0 0.0 0.08 1.12 1.12 100 1011.0
20260509214003 10 94 0.0 0.0 0.10 1.12 1.12 100 1010.9
20260509213504 10 94 0.0 0.0 0.13 1.12 1.12 100 1010.9
20260509213003 10 94 0.0 0.0 0.20 1.12 1.12 100 1010.9
20260509212503 9 82 0.0 0.0 0.25 1.12 1.12 100 1010.9
20260509212003 10 82 0.0 1.6 0.25 1.12 1.12 100 1010.7
20260509211502 9 82 0.0 3.2 0.28 1.12 1.12 100 1010.9
20260509211003 9 83 0.0 3.2 0.30 1.12 1.12 100 1011.0
20260509210504 10 113 0.0 3.2 0.30 1.09 1.09 100 1011.0
20260509210001 9 112 1.6 3.2 0.33 1.09 1.09 100 1011.0
20260509205001 9 305 0.0 3.2 0.36 1.07 1.07 100 1010.9
20260509204503 9 71 1.6 3.2 0.38 1.04 1.04 100 1011.0
20260509204001 9 148 1.6 1.6 0.41 1.02 1.02 100 1011.4
20260509203501 10 117 0.0 3.2 0.36 0.97 0.97 100 1011.4
20260509203001 9 6 0.0 4.8 0.38 0.91 0.91 100 1011.4
20260509202500 9 94 1.6 4.8 0.48 0.86 0.86 100 1011.2
20260509202001 9 98 1.6 3.2 0.61 0.86 0.86 100 1011.2
20260509201502 9 106 0.0 3.2 0.64 0.84 0.84 100 1011.2
20260509201001 9 98 1.6 3.2 0.61 0.81 0.81 100 1011.2
20260509200501 9 74 0.0 3.2 0.61 0.79 0.79 100 1011.2
20260509200003 9 74 0.0 3.2 0.61 0.76 0.76 100 1010.9
20260509195503 10 105 0.0 4.8 0.58 0.74 0.74 100 1011.2
20260509195002 9 105 0.0 4.8 0.56 0.71 0.71 100 1011.2
20260509194501 10 94 1.6 4.8 0.51 0.66 0.66 100 1011.2
20260509193501 9 335 1.6 4.8 0.46 0.61 0.61 100 1011.4
20260509193001 9 70 3.2 4.8 0.38 0.53 0.53 100 1011.3
20260509192502 9 237 3.2 4.8 0.23 0.38 0.38 99 1011.6
20260509192001 9 103 0.0 3.2 0.10 0.25 0.25 99 1011.4
20260509191501 10 88 1.6 3.2 0.05 0.20 0.20 98 1011.3
20260509191001 10 88 0.0 0.0 0.05 0.20 0.20 98 1011.4